This is the latest recevied weather packets stored in our database for station/object dl1wer-13. If no packets are shown the sender has not sent any weather packets the latest 10 day(s).
| Time | Temp. | Humidity | Pressure | Rain* | Wind** | Luminosity | Snow |
|---|---|---|---|---|---|---|---|
| 1788145821 | 61° F | 99% | 782 mmHg | 0.04 in | - | - | - |
| 1788145222 | 61° F | 99% | 782.2 mmHg | 0.06 in | - | - | - |
| 1788144621 | 60° F | 97% | 782.3 mmHg | 0.09 in | - | - | - |
| 1788144022 | 61° F | 96% | 781.9 mmHg | 0.11 in | - | - | - |
| 1788143422 | 61° F | 95% | 782.1 mmHg | 0.12 in | - | - | - |
| 1788142821 | 61° F | 93% | 782.5 mmHg | 0.12 in | - | - | - |
| 1788142222 | 61° F | 92% | 782.7 mmHg | 0.09 in | - | - | - |
| 1788141622 | 62° F | 91% | 782.5 mmHg | 0.07 in | - | - | - |
| 1788141021 | 63° F | 92% | 782.3 mmHg | 0.04 in | - | - | - |
| 1788140421 | 64° F | 90% | 782.6 mmHg | 0.02 in | - | - | - |
| 1788139820 | 62° F | 95% | 781.9 mmHg | 0 in | - | - | - |
| 1788139220 | 62° F | 94% | 780.7 mmHg | 0 in | - | - | - |
| 1788138621 | 62° F | 94% | 780.6 mmHg | 0 in | - | - | - |
| 1788138022 | 62° F | 93% | 780.7 mmHg | 0 in | - | - | - |
| 1788137421 | 61° F | 92% | 780.7 mmHg | 0 in | - | - | - |
| 1788136820 | 62° F | 93% | 780.7 mmHg | 0 in | - | - | - |
| 1788136220 | 62° F | 93% | 780.8 mmHg | 0 in | - | - | - |
| 1788135620 | 62° F | 93% | 780.7 mmHg | 0 in | - | - | - |
| 1788135020 | 62° F | 93% | 780.8 mmHg | 0 in | - | - | - |
| 1788134420 | 62° F | 93% | 780.9 mmHg | 0 in | - | - | - |
| 1788133819 | 62° F | 92% | 780.8 mmHg | 0 in | - | - | - |
| 1788133220 | 62° F | 92% | 780.9 mmHg | 0 in | - | - | - |
| 1788132621 | 62° F | 92% | 781 mmHg | 0 in | - | - | - |
| 1788132021 | 62° F | 91% | 780.8 mmHg | 0 in | - | - | - |
| 1788131420 | 62° F | 90% | 781 mmHg | 0 in | - | - | - |
* Rain latest hour (hover to see other rain measurements)
** Current wind speed in m/s (hover to see current wind gust speed)